KLM156 EGPH-EHAM

Flight info

Callsign KLM156
Flight time 1h 3m
Altitude 35000
Route TLA Y96 OTBUN/N0447F350 DCT ERKIT N110 DOLAS L603 LAMSO
Aircraft B739/M-SDE2E3FGHIRWXY/LB1

Departure

Time 2026-05-08 07:01
Airport Edinburgh Airport (EGPH)

Arrival

Time 2026-05-08 08:04
Airport Amsterdam Airport Schiphol (EHAM)
Time Latitude Longitude Altitude Speed Heading
2026-05-08 06:38 55.94922 -3.36431 115 ft 0 kts 148°
2026-05-08 06:53 55.94941 -3.36452 115 ft 4 kts 148°
2026-05-08 06:53 55.94959 -3.36473 114 ft 4 kts 133°
2026-05-08 06:54 55.94970 -3.36511 111 ft 4 kts 82°
2026-05-08 06:54 55.94962 -3.36549 111 ft 1 kts 58°
2026-05-08 06:57 55.94972 -3.36520 115 ft 7 kts 58°
2026-05-08 06:57 55.95009 -3.36415 114 ft 11 kts 50°
2026-05-08 06:57 55.95085 -3.36404 112 ft 11 kts 19°
2026-05-08 06:58 55.95141 -3.36261 115 ft 17 kts 59°
2026-05-08 06:58 55.95203 -3.36075 113 ft 17 kts 59°
2026-05-08 06:58 55.95274 -3.35862 114 ft 23 kts 59°
2026-05-08 06:58 55.95366 -3.35592 113 ft 28 kts 58°
2026-05-08 06:59 55.95447 -3.35407 115 ft 15 kts 13°
2026-05-08 06:59 55.95530 -3.35475 113 ft 17 kts 329°
2026-05-08 06:59 55.95563 -3.35584 112 ft 7 kts 244°
2026-05-08 06:59 55.95562 -3.35587 111 ft 0 kts 241°
2026-05-08 07:00 55.95452 -3.35917 110 ft 69 kts 239°
2026-05-08 07:00 55.95082 -3.36999 113 ft 133 kts 238°
2026-05-08 07:00 55.94529 -3.38654 253 ft 168 kts 240°
2026-05-08 07:01 55.93948 -3.40402 969 ft 162 kts 239°
2026-05-08 07:01 55.93358 -3.42108 1688 ft 160 kts 238°
2026-05-08 07:01 55.92777 -3.43807 2243 ft 168 kts 238°
2026-05-08 07:01 55.92130 -3.45661 2650 ft 182 kts 238°
2026-05-08 07:02 55.91441 -3.47625 3173 ft 190 kts 238°
2026-05-08 07:02 55.90731 -3.49651 3720 ft 195 kts 238°
2026-05-08 07:02 55.90016 -3.51756 4220 ft 204 kts 239°
2026-05-08 07:02 55.89264 -3.54068 4416 ft 226 kts 240°
2026-05-08 07:03 55.88461 -3.56534 4871 ft 234 kts 238°
2026-05-08 07:03 55.87301 -3.58729 5218 ft 255 kts 211°
2026-05-08 07:03 55.85622 -3.59646 5780 ft 261 kts 182°
2026-05-08 07:03 55.83792 -3.59042 6450 ft 268 kts 163°
2026-05-08 07:04 55.82037 -3.57865 7244 ft 270 kts 161°
2026-05-08 07:04 55.80277 -3.56602 7876 ft 275 kts 160°
2026-05-08 07:04 55.78495 -3.55314 8536 ft 278 kts 160°
2026-05-08 07:04 55.76715 -3.54031 9226 ft 281 kts 160°
2026-05-08 07:05 55.74888 -3.52723 9899 ft 286 kts 160°
2026-05-08 07:05 55.72964 -3.51364 10105 ft 309 kts 160°
2026-05-08 07:05 55.70900 -3.49911 10272 ft 330 kts 160°
2026-05-08 07:05 55.68716 -3.48379 10628 ft 343 kts 160°
2026-05-08 07:06 55.66486 -3.46817 11222 ft 347 kts 160°
2026-05-08 07:06 55.64231 -3.45239 11921 ft 349 kts 160°
2026-05-08 07:06 55.61966 -3.43660 12604 ft 351 kts 160°
2026-05-08 07:06 55.59678 -3.42069 13279 ft 354 kts 160°
2026-05-08 07:07 55.57373 -3.40470 13946 ft 358 kts 160°
2026-05-08 07:07 55.55045 -3.38858 14589 ft 362 kts 160°
2026-05-08 07:07 55.52711 -3.37151 15244 ft 366 kts 153°
2026-05-08 07:07 55.50718 -3.34314 15870 ft 374 kts 130°
2026-05-08 07:08 55.49398 -3.30345 16513 ft 381 kts 111°
2026-05-08 07:08 55.48783 -3.25782 17164 ft 385 kts 102°
2026-05-08 07:08 55.48328 -3.21165 17732 ft 389 kts 101°
2026-05-08 07:08 55.47874 -3.16435 18282 ft 393 kts 101°
2026-05-08 07:09 55.47393 -3.11666 18847 ft 398 kts 102°
2026-05-08 07:09 55.46884 -3.06847 19397 ft 401 kts 102°
2026-05-08 07:09 55.46339 -3.02007 19962 ft 404 kts 105°
2026-05-08 07:09 55.45435 -2.97322 20506 ft 405 kts 116°
2026-05-08 07:10 55.44107 -2.92942 21055 ft 406 kts 121°
2026-05-08 07:10 55.42695 -2.88614 21576 ft 409 kts 122°
2026-05-08 07:10 55.41269 -2.84249 22078 ft 413 kts 121°
2026-05-08 07:10 55.39845 -2.79839 22581 ft 416 kts 121°
2026-05-08 07:11 55.38422 -2.75380 23067 ft 419 kts 121°
2026-05-08 07:11 55.36992 -2.70887 23531 ft 422 kts 121°
2026-05-08 07:11 55.35551 -2.66368 23993 ft 425 kts 121°
2026-05-08 07:11 55.34091 -2.61829 24444 ft 428 kts 121°
2026-05-08 07:12 55.32620 -2.57269 24890 ft 431 kts 121°
2026-05-08 07:12 55.31136 -2.52677 25325 ft 433 kts 121°
2026-05-08 07:12 55.29642 -2.48075 25737 ft 436 kts 123°
2026-05-08 07:12 55.27889 -2.43745 26122 ft 436 kts 133°
2026-05-08 07:13 55.25754 -2.39980 26526 ft 436 kts 142°
2026-05-08 07:13 55.23349 -2.36726 26936 ft 437 kts 145°
2026-05-08 07:13 55.20902 -2.33539 27319 ft 440 kts 145°
2026-05-08 07:13 55.18433 -2.30344 27691 ft 442 kts 145°
2026-05-08 07:14 55.15958 -2.27132 28065 ft 444 kts 145°
2026-05-08 07:14 55.13475 -2.23894 28419 ft 447 kts 145°
2026-05-08 07:14 55.10981 -2.20629 28757 ft 449 kts 145°
2026-05-08 07:14 55.08480 -2.17344 29085 ft 451 kts 145°
2026-05-08 07:15 55.05962 -2.14036 29401 ft 454 kts 145°
2026-05-08 07:15 55.03435 -2.10719 29746 ft 455 kts 145°
2026-05-08 07:15 55.00912 -2.07409 30181 ft 453 kts 145°
2026-05-08 07:15 54.98400 -2.04117 30656 ft 451 kts 145°
2026-05-08 07:16 54.95894 -2.00841 31046 ft 451 kts 145°
2026-05-08 07:16 54.93382 -1.97563 31374 ft 451 kts 144°
2026-05-08 07:16 54.90870 -1.94293 31738 ft 451 kts 144°
2026-05-08 07:16 54.88365 -1.91034 32137 ft 449 kts 144°
2026-05-08 07:17 54.85859 -1.87778 32480 ft 449 kts 144°
2026-05-08 07:17 54.83357 -1.84534 32778 ft 450 kts 144°
2026-05-08 07:17 54.80845 -1.81282 33113 ft 449 kts 144°
2026-05-08 07:17 54.78343 -1.78049 33456 ft 448 kts 144°
2026-05-08 07:18 54.75844 -1.74824 33749 ft 448 kts 144°
2026-05-08 07:18 54.73338 -1.71597 34029 ft 448 kts 144°
2026-05-08 07:18 54.70834 -1.68378 34317 ft 448 kts 144°
2026-05-08 07:18 54.68332 -1.65165 34575 ft 449 kts 144°
2026-05-08 07:19 54.65823 -1.61948 34801 ft 450 kts 145°
2026-05-08 07:19 54.63310 -1.58730 35056 ft 450 kts 145°
2026-05-08 07:19 54.58252 -1.52271 35074 ft 452 kts 145°
2026-05-08 07:20 54.53213 -1.45856 35068 ft 449 kts 145°
2026-05-08 07:20 54.48203 -1.39497 35071 ft 446 kts 145°
2026-05-08 07:21 54.43236 -1.33214 35078 ft 445 kts 145°
2026-05-08 07:21 54.38243 -1.26914 35071 ft 446 kts 145°
2026-05-08 07:22 54.33240 -1.20625 35083 ft 446 kts 145°
2026-05-08 07:22 54.28219 -1.14331 35081 ft 448 kts 145°
2026-05-08 07:23 54.23180 -1.08034 35082 ft 450 kts 145°
2026-05-08 07:23 54.18114 -1.01722 35075 ft 451 kts 145°
2026-05-08 07:24 54.13036 -0.95415 35075 ft 452 kts 145°
2026-05-08 07:24 54.07945 -0.89108 35071 ft 452 kts 145°
2026-05-08 07:25 54.02848 -0.82816 35073 ft 453 kts 146°
2026-05-08 07:26 53.95089 -0.73656 35075 ft 452 kts 147°
2026-05-08 07:26 53.89899 -0.67628 35072 ft 452 kts 146°
2026-05-08 07:27 53.84729 -0.61559 35075 ft 451 kts 147°
2026-05-08 07:27 53.79548 -0.55552 35079 ft 451 kts 147°
2026-05-08 07:28 53.74372 -0.49550 35085 ft 451 kts 147°
2026-05-08 07:28 53.69205 -0.43570 35088 ft 450 kts 147°
2026-05-08 07:29 53.64055 -0.37665 35100 ft 450 kts 147°
2026-05-08 07:29 53.58901 -0.31658 35096 ft 451 kts 142°
2026-05-08 07:30 53.54615 -0.23875 35109 ft 453 kts 128°
2026-05-08 07:30 53.50873 -0.15341 35099 ft 454 kts 127°
2026-05-08 07:31 53.47748 -0.08256 35102 ft 454 kts 128°
2026-05-08 07:31 53.43329 0.01591 35103 ft 454 kts 128°
2026-05-08 07:32 53.39506 0.10031 35108 ft 454 kts 128°
2026-05-08 07:32 53.36296 0.17089 35096 ft 455 kts 129°
2026-05-08 07:33 53.32466 0.25502 35101 ft 454 kts 129°
2026-05-08 07:33 53.28633 0.33897 35101 ft 453 kts 129°
2026-05-08 07:34 53.25125 0.41554 35099 ft 452 kts 129°
2026-05-08 07:34 53.21670 0.49063 35101 ft 452 kts 129°
2026-05-08 07:35 53.17832 0.57366 35103 ft 451 kts 129°
2026-05-08 07:35 53.13994 0.65645 35102 ft 451 kts 129°
2026-05-08 07:36 53.10150 0.73915 35102 ft 451 kts 129°
2026-05-08 07:36 53.06301 0.82170 35103 ft 451 kts 129°
2026-05-08 07:37 53.02451 0.90404 35102 ft 452 kts 129°
2026-05-08 07:37 52.98822 0.98928 35099 ft 454 kts 118°
2026-05-08 07:38 52.96755 1.08809 35104 ft 456 kts 102°
2026-05-08 07:38 52.95598 1.19168 35102 ft 457 kts 101°
2026-05-08 07:39 52.94461 1.29471 35101 ft 457 kts 101°
2026-05-08 07:39 52.93265 1.39848 35101 ft 458 kts 102°
2026-05-08 07:40 52.92038 1.50206 35122 ft 458 kts 102°
2026-05-08 07:40 52.90798 1.60563 35127 ft 458 kts 102°
2026-05-08 07:41 52.89550 1.70906 35131 ft 458 kts 102°
2026-05-08 07:41 52.88293 1.81252 35131 ft 458 kts 102°
2026-05-08 07:41 52.87660 1.86433 34925 ft 462 kts 102°
2026-05-08 07:42 52.87014 1.91697 34187 ft 469 kts 102°
2026-05-08 07:42 52.86365 1.96971 33405 ft 468 kts 102°
2026-05-08 07:42 52.85713 2.02244 32584 ft 468 kts 102°
2026-05-08 07:42 52.85061 2.07502 31993 ft 463 kts 102°
2026-05-08 07:43 52.84417 2.12681 31394 ft 458 kts 102°
2026-05-08 07:43 52.83775 2.17814 30812 ft 453 kts 102°
2026-05-08 07:43 52.83139 2.22885 30231 ft 448 kts 102°
2026-05-08 07:43 52.82509 2.27896 29660 ft 443 kts 102°
2026-05-08 07:44 52.81882 2.32852 29090 ft 438 kts 102°
2026-05-08 07:44 52.81260 2.37765 28526 ft 434 kts 102°
2026-05-08 07:44 52.80643 2.42614 27964 ft 430 kts 103°
2026-05-08 07:44 52.80036 2.47367 27420 ft 426 kts 103°
2026-05-08 07:45 52.79427 2.52128 26892 ft 421 kts 103°
2026-05-08 07:45 52.78811 2.56899 26318 ft 417 kts 103°
2026-05-08 07:45 52.78206 2.61564 25784 ft 414 kts 103°
2026-05-08 07:45 52.77611 2.66136 25251 ft 410 kts 103°
2026-05-08 07:46 52.77014 2.70722 24717 ft 406 kts 103°
2026-05-08 07:46 52.76422 2.75260 24188 ft 403 kts 103°
2026-05-08 07:46 52.75832 2.79757 23666 ft 399 kts 103°
2026-05-08 07:46 52.75255 2.84214 23155 ft 396 kts 103°
2026-05-08 07:47 52.74688 2.88640 22648 ft 392 kts 102°
2026-05-08 07:47 52.74125 2.93020 22137 ft 389 kts 103°
2026-05-08 07:47 52.73562 2.97372 21627 ft 386 kts 103°
2026-05-08 07:47 52.72697 3.01514 21090 ft 381 kts 120°
2026-05-08 07:48 52.71357 3.05253 20627 ft 377 kts 122°
2026-05-08 07:48 52.70016 3.08950 20116 ft 375 kts 122°
2026-05-08 07:48 52.68693 3.12629 19623 ft 372 kts 121°
2026-05-08 07:48 52.67388 3.16296 19138 ft 369 kts 121°
2026-05-08 07:49 52.66103 3.19930 18663 ft 366 kts 121°
2026-05-08 07:49 52.64827 3.23549 18180 ft 364 kts 121°
2026-05-08 07:49 52.63563 3.27140 17703 ft 361 kts 121°
2026-05-08 07:49 52.62307 3.30703 17232 ft 359 kts 121°
2026-05-08 07:50 52.61060 3.34238 16759 ft 356 kts 121°
2026-05-08 07:50 52.59822 3.37738 16376 ft 352 kts 121°
2026-05-08 07:50 52.58599 3.41193 15991 ft 346 kts 121°
2026-05-08 07:50 52.57395 3.44590 15614 ft 342 kts 121°
2026-05-08 07:51 52.56211 3.47926 15226 ft 334 kts 121°
2026-05-08 07:51 52.55054 3.51182 14841 ft 324 kts 121°
2026-05-08 07:51 52.53932 3.54339 14458 ft 316 kts 121°
2026-05-08 07:51 52.52835 3.57418 14077 ft 309 kts 121°
2026-05-08 07:52 52.51758 3.60439 13701 ft 304 kts 121°
2026-05-08 07:52 52.50694 3.63423 13331 ft 303 kts 121°
2026-05-08 07:52 52.49630 3.66403 12965 ft 302 kts 121°
2026-05-08 07:52 52.48574 3.69359 12587 ft 300 kts 121°
2026-05-08 07:53 52.47517 3.72314 12215 ft 299 kts 121°
2026-05-08 07:53 52.46464 3.75250 11854 ft 298 kts 121°
2026-05-08 07:53 52.45415 3.78167 11485 ft 296 kts 121°
2026-05-08 07:53 52.44371 3.81069 11094 ft 296 kts 121°
2026-05-08 07:54 52.43326 3.83965 10720 ft 294 kts 121°
2026-05-08 07:54 52.42283 3.86859 10353 ft 295 kts 121°
2026-05-08 07:54 52.41237 3.89741 9974 ft 294 kts 121°
2026-05-08 07:54 52.40193 3.92603 9590 ft 293 kts 121°
2026-05-08 07:55 52.39148 3.95456 9221 ft 291 kts 121°
2026-05-08 07:55 52.38106 3.98292 8858 ft 289 kts 121°
2026-05-08 07:55 52.37070 4.01110 8467 ft 288 kts 121°
2026-05-08 07:55 52.36035 4.03909 8097 ft 287 kts 121°
2026-05-08 07:56 52.35002 4.06698 7733 ft 286 kts 121°
2026-05-08 07:56 52.33974 4.09467 7358 ft 284 kts 121°
2026-05-08 07:56 52.32949 4.12226 6975 ft 284 kts 121°
2026-05-08 07:56 52.31927 4.14978 6602 ft 283 kts 121°
2026-05-08 07:57 52.30905 4.17725 6235 ft 283 kts 121°
2026-05-08 07:57 52.29887 4.20464 5858 ft 282 kts 121°
2026-05-08 07:57 52.28871 4.23194 5481 ft 281 kts 121°
2026-05-08 07:57 52.27856 4.25920 5107 ft 280 kts 121°
2026-05-08 07:58 52.26846 4.28627 4737 ft 279 kts 121°
2026-05-08 07:58 52.25848 4.31299 4351 ft 278 kts 121°
2026-05-08 07:58 52.24830 4.34019 3978 ft 277 kts 121°
2026-05-08 07:58 52.23840 4.36658 3610 ft 275 kts 121°
2026-05-08 07:59 52.22847 4.39299 3277 ft 263 kts 121°
2026-05-08 07:59 52.21932 4.41718 3046 ft 245 kts 121°
2026-05-08 07:59 52.21074 4.43981 2982 ft 223 kts 121°
2026-05-08 07:59 52.20294 4.46040 2968 ft 204 kts 121°
2026-05-08 08:00 52.19650 4.47949 2969 ft 183 kts 105°
2026-05-08 08:00 52.19804 4.49905 3008 ft 178 kts 60°
2026-05-08 08:00 52.20475 4.51628 2989 ft 182 kts 58°
2026-05-08 08:00 52.21144 4.53393 2838 ft 184 kts 59°
2026-05-08 08:01 52.21817 4.55166 2601 ft 182 kts 59°
2026-05-08 08:01 52.22483 4.56909 2356 ft 178 kts 58°
2026-05-08 08:01 52.23131 4.58608 2121 ft 175 kts 59°
2026-05-08 08:01 52.23752 4.60239 1925 ft 161 kts 58°
2026-05-08 08:02 52.24331 4.61751 1696 ft 155 kts 58°
2026-05-08 08:02 52.24901 4.63241 1498 ft 153 kts 59°
2026-05-08 08:02 52.25463 4.64714 1276 ft 153 kts 58°
2026-05-08 08:02 52.26025 4.66182 1085 ft 154 kts 58°
2026-05-08 08:03 52.26597 4.67678 879 ft 156 kts 59°
2026-05-08 08:03 52.27175 4.69189 671 ft 157 kts 58°
2026-05-08 08:03 52.27757 4.70707 458 ft 157 kts 58°
2026-05-08 08:03 52.28325 4.72206 249 ft 153 kts 59°
2026-05-08 08:04 52.28887 4.73660 44 ft 150 kts 58°
2026-05-08 08:04 52.29407 4.75020 -3 ft 126 kts 57°
2026-05-08 08:04 52.29793 4.76024 -5 ft 83 kts 58°
2026-05-08 08:04 52.30020 4.76613 -3 ft 44 kts 58°
2026-05-08 08:05 52.30176 4.77021 -4 ft 37 kts 58°
2026-05-08 08:05 52.30299 4.77296 -5 ft 21 kts 34°
2026-05-08 08:05 52.30387 4.77373 -4 ft 14 kts 27°
2026-05-08 08:05 52.30475 4.77395 -2 ft 13 kts 341°
2026-05-08 08:06 52.30548 4.77431 -2 ft 13 kts 59°
2026-05-08 08:06 52.30598 4.77547 -2 ft 12 kts 39°
2026-05-08 08:06 52.30677 4.77588 -2 ft 12 kts
2026-05-08 08:06 52.30760 4.77597 -2 ft 12 kts
2026-05-08 08:07 52.30841 4.77606 -2 ft 11 kts
2026-05-08 08:07 52.30920 4.77613 -2 ft 11 kts
2026-05-08 08:07 52.30996 4.77611 -2 ft 11 kts 344°
2026-05-08 08:07 52.31042 4.77515 -2 ft 11 kts 298°
2026-05-08 08:08 52.31068 4.77398 -2 ft 11 kts 274°
2026-05-08 08:08 52.31074 4.77275 -2 ft 11 kts 274°
2026-05-08 08:08 52.31077 4.77158 -2 ft 8 kts 269°
2026-05-08 08:08 52.31052 4.77122 -2 ft 4 kts 182°
2026-05-08 08:09 52.31026 4.77120 -2 ft 4 kts 182°
2026-05-08 08:09 52.31008 4.77119 -2 ft 1 kts 182°
2026-05-08 08:09 52.31004 4.77118 -2 ft 0 kts 182°